Nebraska City, NE

5:00 PM CST on December 07, 2016 (GMT -0600)
Nebraska City Municipal

Weather History for KAFK - October, 2013

Change the Weather History Date:

Thursday, October 10, 2013

  Actual Average (KSDA) Record (KSDA)
Temperature  
Mean Temperature 66 °F -  
Max Temperature 80 °F 67 °F 95 °F (1963)
Min Temperature 51 °F 41 °F 25 °F (1979)
Growing Degree Days 16 (Base 50)    
Moisture  
Dew Point 51 °F    
Average Humidity 62    
Maximum Humidity 87    
Minimum Humidity 37    
Precipitation  
Precipitation 0.00 in - - ()
Sea Level Pressure  
Sea Level Pressure 29.94 in    
Wind  
Wind Speed 10 mph (SSE)    
Max Wind Speed 23 mph    
Max Gust Speed 28 mph    
Visibility 10 miles    
Events      
Averages and records for this station are not official NWS values.
T = Trace of Precipitation, MM = Missing Value Source: NWS Daily Summary

Daily Weather History Graph

Daily Weather History Graph

Search for Another Location

Airport or City:

Trip Planner

Search our weather history database for the weather conditions in past years. The results will help you decide how hot, cold, wet, or windy it might be!

Date:

Astronomy

Oct. 10, 2013 Rise Set
Actual Time 7:29 AM CDT 6:50 PM CDT
Civil Twilight 7:02 AM CDT 7:17 PM CDT
Nautical Twilight 6:30 AM CDT 7:49 PM CDT
Astronomical Twilight 5:58 AM CDT 8:21 PM CDT
Moon 1:23 PM CDT (10/10) 11:28 PM CDT (10/10)
Length of Visible Light 12h 15m
Length of Day
11h 21m
Waxing Crescent, 36% of the Moon is Illuminated
Oct 10
Waxing Crescent
Oct 11
First Quarter
Oct 18
Full
Oct 26
Last Quarter
Nov 3
New

Hourly Weather History & Observations

Time (CDT) Temp. Dew Point Humidity Pressure Visibility Wind Dir Wind Speed Gust Speed Precip Events Conditions
12:15 AM 58.8 °F 47.3 °F 66% 30.01 in 10.0 mi South 9.2 mph - N/A   Clear
12:35 AM 58.5 °F 47.3 °F 66% 30.01 in 10.0 mi South 9.2 mph - N/A   Clear
12:55 AM 58.1 °F 47.3 °F 67% 30.00 in 10.0 mi South 8.1 mph - N/A   Clear
1:15 AM 56.3 °F 47.3 °F 72% 30.01 in 10.0 mi SSE 6.9 mph - N/A   Clear
1:35 AM 55.8 °F 47.3 °F 73% 30.01 in 10.0 mi South 8.1 mph - N/A   Clear
1:55 AM 55.0 °F 47.3 °F 75% 30.01 in 10.0 mi SSE 6.9 mph - N/A   Clear
2:15 AM 55.2 °F 47.3 °F 75% 30.01 in 10.0 mi SSE 6.9 mph - N/A   Clear
2:35 AM 54.7 °F 47.7 °F 77% 30.01 in 10.0 mi SSE 6.9 mph - N/A   Clear
2:55 AM 53.2 °F 47.7 °F 81% 30.01 in 10.0 mi SSE 6.9 mph - N/A   Clear
3:15 AM 54.0 °F 47.8 °F 80% 30.01 in 10.0 mi SSE 5.8 mph - N/A   Clear
3:35 AM 54.3 °F 48.2 °F 80% 30.01 in 10.0 mi South 6.9 mph - N/A   Clear
3:55 AM 53.6 °F 47.8 °F 81% 30.01 in 10.0 mi SSE 5.8 mph - N/A   Clear
4:15 AM 53.6 °F 47.8 °F 81% 30.01 in 10.0 mi SSE 5.8 mph - N/A   Clear
4:35 AM 53.4 °F 47.7 °F 81% 30.01 in 10.0 mi SSE 4.6 mph - N/A   Clear
4:55 AM 52.7 °F 47.7 °F 83% 30.01 in 10.0 mi SSE 6.9 mph - N/A   Clear
5:15 AM 53.1 °F 47.7 °F 82% 30.01 in 10.0 mi SSE 6.9 mph - N/A   Clear
5:35 AM 53.1 °F 47.7 °F 82% 30.01 in 10.0 mi SSE 6.9 mph - N/A   Clear
5:55 AM 52.7 °F 47.7 °F 83% 30.00 in 10.0 mi SSE 6.9 mph - N/A   Clear
6:15 AM 52.7 °F 47.8 °F 84% 30.00 in 10.0 mi SSE 4.6 mph - N/A   Clear
6:35 AM 52.7 °F 47.8 °F 84% 30.00 in 10.0 mi SSE 5.8 mph - N/A   Clear
6:55 AM 51.8 °F 47.7 °F 86% 30.00 in 10.0 mi SSE 4.6 mph - N/A   Clear
7:15 AM 51.6 °F 47.5 °F 86% 30.00 in 10.0 mi SSE 5.8 mph - N/A   Clear
7:35 AM 51.6 °F 47.8 °F 87% 30.00 in 10.0 mi SSE 5.8 mph - N/A   Clear
7:55 AM 52.3 °F 48.2 °F 86% 30.00 in 10.0 mi SSE 6.9 mph - N/A   Clear
8:15 AM 53.6 °F 48.7 °F 84% 30.01 in 10.0 mi SSE 6.9 mph - N/A   Clear
8:35 AM 55.0 °F 49.3 °F 81% 30.00 in 10.0 mi SSE 9.2 mph - N/A   Clear
8:55 AM 56.7 °F 50.0 °F 78% 30.01 in 10.0 mi South 9.2 mph - N/A   Clear
9:15 AM 59.0 °F 51.1 °F 75% 30.01 in 10.0 mi South 8.1 mph - N/A   Clear
9:35 AM 62.1 °F 51.8 °F 69% 30.01 in 10.0 mi South 13.8 mph - N/A   Clear
9:55 AM 63.7 °F 51.8 °F 65% 30.01 in 10.0 mi South 11.5 mph - N/A   Clear
10:15 AM 66.0 °F 52.7 °F 62% 30.01 in 10.0 mi South 15.0 mph - N/A   Clear
10:35 AM 67.5 °F 52.9 °F 59% 30.00 in 10.0 mi South 13.8 mph - N/A   Clear
10:55 AM 69.3 °F 52.9 °F 56% 29.99 in 10.0 mi South 13.8 mph - N/A   Clear
11:15 AM 70.7 °F 53.1 °F 54% 29.99 in 10.0 mi South 15.0 mph - N/A   Clear
11:35 AM 71.6 °F 53.6 °F 53% 29.99 in 10.0 mi SSE 13.8 mph 20.7 mph N/A   Clear
11:55 AM 73.0 °F 53.8 °F 51% 29.98 in 10.0 mi South 16.1 mph 20.7 mph N/A   Clear
12:15 PM 74.5 °F 54.0 °F 49% 29.97 in 10.0 mi SSE 15.0 mph 19.6 mph N/A   Clear
12:35 PM 75.7 °F 54.0 °F 47% 29.96 in 10.0 mi SSE 12.7 mph 20.7 mph N/A   Clear
12:55 PM 76.6 °F 54.0 °F 45% 29.96 in 10.0 mi SSE 13.8 mph 20.7 mph N/A   Clear
1:15 PM 77.5 °F 53.1 °F 42% 29.94 in 10.0 mi South 18.4 mph 26.5 mph N/A   Clear
1:35 PM 78.1 °F 54.0 °F 43% 29.93 in 10.0 mi SSE 17.3 mph 23.0 mph N/A   Clear
1:55 PM 78.8 °F 53.8 °F 42% 29.92 in 10.0 mi SSE 18.4 mph 25.3 mph N/A   Clear
2:15 PM 78.6 °F 53.4 °F 42% 29.91 in 10.0 mi SSE 18.4 mph 23.0 mph N/A   Clear
2:35 PM 79.0 °F 52.5 °F 40% 29.90 in 10.0 mi South 18.4 mph 27.6 mph N/A   Clear
2:55 PM 79.3 °F 52.5 °F 39% 29.89 in 10.0 mi South 18.4 mph 27.6 mph N/A   Clear
3:15 PM 78.8 °F 51.3 °F 38% 29.89 in 10.0 mi South 18.4 mph 26.5 mph N/A   Clear
3:35 PM 80.2 °F 51.4 °F 37% 29.88 in 10.0 mi South 19.6 mph 26.5 mph N/A   Clear
3:55 PM 79.9 °F 52.9 °F 39% 29.87 in 10.0 mi SSE 19.6 mph 24.2 mph N/A   Clear
4:15 PM 79.3 °F 52.9 °F 40% 29.87 in 10.0 mi SSE 19.6 mph 25.3 mph N/A   Clear
4:35 PM 78.6 °F 52.9 °F 41% 29.87 in 10.0 mi SSE 17.3 mph 26.5 mph N/A   Clear
4:55 PM 78.3 °F 52.5 °F 41% 29.87 in 10.0 mi South 23.0 mph 26.5 mph N/A   Clear
5:15 PM 77.9 °F 53.1 °F 42% 29.87 in 10.0 mi South 19.6 mph 25.3 mph N/A   Clear
5:35 PM 77.0 °F 53.2 °F 44% 29.86 in 10.0 mi South 15.0 mph 27.6 mph N/A   Clear
5:55 PM 76.1 °F 52.9 °F 44% 29.86 in 10.0 mi South 15.0 mph 23.0 mph N/A   Clear
6:15 PM 75.2 °F 52.3 °F 45% 29.86 in 10.0 mi SSE 17.3 mph 23.0 mph N/A   Clear
6:35 PM 73.8 °F 52.5 °F 47% 29.86 in 10.0 mi SSE 10.4 mph 18.4 mph N/A   Clear
6:55 PM 72.5 °F 52.7 °F 50% 29.85 in 10.0 mi SSE 9.2 mph - N/A   Clear
7:15 PM 71.1 °F 53.4 °F 54% 29.86 in 10.0 mi SSE 8.1 mph - N/A   Clear
7:35 PM 70.3 °F 53.6 °F 55% 29.86 in 10.0 mi SSE 10.4 mph - N/A   Clear
7:55 PM 69.8 °F 53.6 °F 56% 29.85 in 10.0 mi SSE 10.4 mph 17.3 mph N/A   Clear
8:15 PM 68.9 °F 53.4 °F 58% 29.85 in 10.0 mi SSE 10.4 mph - N/A   Clear
8:35 PM 68.5 °F 53.1 °F 58% 29.85 in 10.0 mi SSE 12.7 mph 17.3 mph N/A   Clear
8:55 PM 68.2 °F 52.7 °F 58% 29.85 in 10.0 mi SSE 10.4 mph - N/A   Clear
9:15 PM 67.3 °F 52.7 °F 59% 29.84 in 10.0 mi SSE 11.5 mph - N/A   Clear
9:35 PM 67.3 °F 52.3 °F 59% 29.84 in 10.0 mi SSE 11.5 mph 17.3 mph N/A   Clear
9:55 PM 66.4 °F 52.3 °F 61% 29.84 in 10.0 mi SSE 10.4 mph - N/A   Clear
10:15 PM 66.2 °F 52.3 °F 61% 29.84 in 10.0 mi SSE 12.7 mph 16.1 mph N/A   Clear
10:35 PM 65.5 °F 52.2 °F 62% 29.82 in 10.0 mi SE 11.5 mph - N/A   Clear
10:55 PM 65.3 °F 52.2 °F 62% 29.83 in 10.0 mi SSE 12.7 mph 18.4 mph N/A   Clear
11:15 PM 65.7 °F 52.0 °F 61% 29.83 in 10.0 mi South 17.3 mph 21.9 mph N/A   Clear
11:35 PM 65.3 °F 52.2 °F 62% 29.84 in 10.0 mi South 16.1 mph 23.0 mph N/A   Clear
11:55 PM 64.6 °F 52.2 °F 64% 29.84 in 10.0 mi SSE 15.0 mph 18.4 mph N/A   Clear